TimeEDT,TemperatureF,Dew PointF,Humidity,Sea Level PressureIn,VisibilityMPH,Wind Direction,Wind SpeedMPH,Gust SpeedMPH,PrecipitationIn,Events,Conditions,WindDirDegrees,DateUTC
12:52 AM,42.1,30.9,65,30.05,10.0,NNW,16.1,19.6,N/A,,Mostly Cloudy,340,2012-10-29 04:52:00
1:52 AM,41.0,28.9,62,30.04,10.0,North,16.1,-,N/A,,Partly Cloudy,350,2012-10-29 05:52:00
2:52 AM,39.9,28.0,63,30.04,10.0,NNW,12.7,-,N/A,,Scattered Clouds,340,2012-10-29 06:52:00
3:52 AM,39.9,28.9,65,30.03,10.0,NNW,12.7,-,N/A,,Mostly Cloudy,340,2012-10-29 07:52:00
4:52 AM,39.9,28.9,65,30.03,10.0,NNW,13.8,-,N/A,,Partly Cloudy,340,2012-10-29 08:52:00
5:52 AM,39.0,28.0,65,30.03,10.0,NNW,15.0,-,N/A,,Scattered Clouds,340,2012-10-29 09:52:00
6:52 AM,39.0,28.0,65,30.03,10.0,North,13.8,21.9,N/A,,Mostly Cloudy,350,2012-10-29 10:52:00
7:52 AM,39.0,28.0,65,30.02,10.0,NNW,15.0,-,N/A,,Mostly Cloudy,340,2012-10-29 11:52:00
8:52 AM,37.9,28.0,68,30.03,10.0,North,11.5,20.7,N/A,,Mostly Cloudy,350,2012-10-29 12:52:00
9:52 AM,39.0,28.0,65,30.01,10.0,NNW,18.4,24.2,N/A,,Mostly Cloudy,340,2012-10-29 13:52:00
10:52 AM,41.0,28.9,62,30.01,10.0,NNW,23.0,29.9,N/A,,Overcast,340,2012-10-29 14:52:00
11:52 AM,42.1,30.0,62,30.01,10.0,NNW,21.9,27.6,0.00,Rain,Light Rain,340,2012-10-29 15:52:00
12:52 PM,43.0,30.0,60,29.99,10.0,NNW,18.4,29.9,0.00,,Overcast,340,2012-10-29 16:52:00
1:52 PM,44.1,28.9,55,29.97,10.0,NNW,18.4,28.8,N/A,,Overcast,340,2012-10-29 17:52:00
2:52 PM,45.0,28.0,52,29.95,10.0,NNW,24.2,28.8,N/A,,Overcast,330,2012-10-29 18:52:00
3:52 PM,45.0,27.0,49,29.93,10.0,NNW,20.7,28.8,N/A,,Overcast,340,2012-10-29 19:52:00
4:52 PM,45.0,21.9,40,29.91,10.0,NNW,21.9,32.2,N/A,,Overcast,330,2012-10-29 20:52:00
5:52 PM,44.6,17.6,34,29.88,10.0,NNW,21.9,33.4,N/A,,Overcast,330,2012-10-29 21:52:00
6:52 PM,45.0,18.0,34,29.87,10.0,NW,18.4,-,N/A,,Overcast,320,2012-10-29 22:52:00
7:52 PM,46.0,19.0,34,29.85,10.0,NNW,24.2,32.2,N/A,,Overcast,330,2012-10-29 23:52:00
8:52 PM,45.0,19.0,36,29.83,10.0,NNW,26.5,39.1,N/A,,Overcast,330,2012-10-30 00:52:00
9:52 PM,45.0,21.9,40,29.81,10.0,NW,19.6,29.9,N/A,,Overcast,320,2012-10-30 01:52:00
10:52 PM,44.1,24.1,45,29.79,10.0,NW,24.2,33.4,N/A,,Overcast,320,2012-10-30 02:52:00
11:52 PM,44.1,25.0,47,29.75,10.0,NW,23.0,35.7,N/A,,Overcast,320,2012-10-30 03:52:00